GW3296 Weather Reports


time (UTC)temp
C
wind
direction
speed
KPH
gust
KPH
rain 1hr
cm
rain 24hr
cm
rain mn
cm
humidity
%
barometer
mb
20260906131735 22 47 0.0 14.5 0.00 0.00 0.00 88 1019.1
20260906131230 22 54 3.2 6.4 0.00 0.00 0.00 88 1019.0
20260906130726 22 99 6.4 9.7 0.00 0.00 0.00 88 1019.1
20260906130221 22 4 3.2 4.8 0.00 0.00 0.00 88 1019.3
20260906125719 22 78 8.0 11.3 0.00 0.00 0.00 88 1019.2
20260906125217 22 60 6.4 9.7 0.00 0.00 0.00 88 1019.0
20260906124713 22 116 3.2 8.0 0.00 0.00 0.00 89 1018.9
20260906124209 22 56 3.2 8.0 0.00 0.00 0.00 89 1019.0
20260906123707 22 342 1.6 9.7 0.00 0.00 0.00 89 1018.8
20260906123202 22 9 1.6 8.0 0.00 0.00 0.00 89 1018.7
20260906122701 22 59 0.0 6.4 0.00 0.00 0.00 89 1018.7
20260906122157 22 74 3.2 4.8 0.00 0.00 0.00 89 1018.5
20260906121653 22 327 3.2 6.4 0.00 0.00 0.00 89 1018.4
20260906121149 22 342 3.2 4.8 0.00 0.00 0.00 89 1018.2
20260906120645 22 298 0.0 6.4 0.00 0.00 0.00 89 1018.4
20260906120142 22 285 4.8 4.8 0.00 0.00 0.00 89 1018.2
20260906115642 22 209 1.6 4.8 0.00 0.00 0.00 89 1018.2
20260906115137 22 283 3.2 3.2 0.00 0.00 0.00 89 1018.1
20260906114636 22 130 0.0 3.2 0.00 0.00 0.00 89 1018.2
20260906114131 22 6 3.2 3.2 0.00 0.00 0.00 89 1017.8
20260906113632 22 38 0.0 3.2 0.00 0.00 0.00 90 1018.0
20260906113126 22 172 3.2 3.2 0.00 0.00 0.00 90 1017.7
20260906112625 22 54 0.0 3.2 0.00 0.00 0.00 90 1017.6
20260906112123 22 89 1.6 6.4 0.00 0.00 0.00 90 1017.9
20260906111622 21 203 0.0 3.2 0.00 0.00 0.00 90 1017.7
20260906111117 21 87 1.6 3.2 0.00 0.00 0.00 90 1017.9
20260906110617 21 59 1.6 4.8 0.00 0.00 0.00 90 1017.9
20260906110112 21 77 4.8 6.4 0.00 0.00 0.00 91 1017.7
20260906105606 21 215 1.6 4.8 0.00 0.00 0.00 91 1017.7
20260906105103 21 128 3.2 3.2 0.00 0.00 0.00 91 1017.7
20260906104601 21 52 1.6 3.2 0.00 0.00 0.00 91 1017.6
20260906104055 21 106 1.6 3.2 0.00 0.00 0.00 91 1017.7
20260906103554 21 65 1.6 3.2 0.00 0.00 0.00 91 1017.6
20260906103050 21 71 3.2 4.8 0.00 0.00 0.00 91 1017.6
20260906102549 21 276 0.0 4.8 0.00 0.00 0.00 91 1017.2
20260906102044 21 161 3.2 4.8 0.00 0.00 0.00 91 1017.2
20260906101539 21 154 4.8 6.4 0.00 0.00 0.00 91 1017.2
20260906101033 21 38 4.8 4.8 0.00 0.00 0.00 90 1017.1
20260906100529 21 50 4.8 6.4 0.00 0.00 0.00 90 1017.1
20260906100030 21 123 0.0 4.8 0.00 0.00 0.00 90 1017.2
20260906095524 21 147 0.0 6.4 0.00 0.00 0.00 90 1017.2
20260906095020 21 51 3.2 6.4 0.00 0.00 0.00 90 1017.0
20260906094518 21 350 1.6 6.4 0.00 0.00 0.00 90 1017.1
20260906094014 21 77 6.4 11.3 0.00 0.00 0.00 90 1016.9
20260906093510 21 102 3.2 6.4 0.00 0.00 0.00 91 1017.0
20260906093010 21 91 6.4 9.7 0.00 0.00 0.00 91 1016.9
20260906092505 21 27 3.2 9.7 0.00 0.00 0.00 91 1016.8
20260906092000 21 80 6.4 9.7 0.00 0.00 0.00 90 1017.0
20260906091455 21 66 8.0 9.7 0.00 0.00 0.00 90 1017.2
20260906090952 21 60 3.2 9.7 0.00 0.00 0.00 90 1017.1
20260906090447 21 59 1.6 6.4 0.00 0.00 0.00 90 1017.2
20260906085947 21 8 3.2 8.0 0.00 0.00 0.00 89 1017.0
20260906085446 21 310 0.0 4.8 0.00 0.00 0.00 89 1017.0
20260906084945 21 117 3.2 8.0 0.00 0.00 0.00 89 1017.0
20260906084440 21 89 6.4 14.5 0.00 0.00 0.00 89 1017.0
20260906083939 21 87 4.8 6.4 0.00 0.00 0.00 89 1017.0
20260906083435 21 148 0.0 4.8 0.00 0.00 0.00 88 1017.0
20260906082934 21 30 3.2 11.3 0.00 0.00 0.00 88 1017.0
20260906082430 21 25 6.4 17.7 0.00 0.00 0.00 88 1017.0
20260906081925 21 40 3.2 9.7 0.00 0.00 0.00 87 1017.0
20260906081421 21 89 4.8 9.7 0.00 0.00 0.00 87 1017.1
20260906080917 21 30 0.0 16.1 0.00 0.00 0.00 87 1017.0
20260906080413 21 60 8.0 9.7 0.00 0.00 0.00 87 1016.8
20260906075912 21 57 8.0 9.7 0.00 0.00 0.00 87 1016.9
20260906075408 21 20 1.6 9.7 0.00 0.00 0.00 87 1017.0
20260906074903 21 39 4.8 17.7 0.00 0.00 0.00 87 1017.0
20260906074402 21 55 6.4 14.5 0.00 0.00 0.00 86 1017.1
20260906073901 22 53 0.0 6.4 0.00 0.00 0.00 86 1017.0
20260906073356 22 54 4.8 8.0 0.00 0.00 0.00 86 1017.0
20260906072853 22 77 14.5 14.5 0.00 0.00 0.00 86 1017.3
20260906072348 22 50 4.8 11.3 0.00 0.00 0.00 86 1017.3
20260906071844 22 77 6.4 11.3 0.00 0.00 0.00 86 1017.2
20260906071339 22 28 6.4 11.3 0.00 0.00 0.00 86 1017.4
20260906070835 22 64 6.4 8.0 0.00 0.00 0.00 86 1017.4
20260906070331 22 51 3.2 9.7 0.00 0.00 0.00 85 1017.2
20260906065826 22 45 3.2 17.7 0.00 0.00 0.00 85 1017.4
20260906065321 22 58 8.0 9.7 0.00 0.00 0.00 85 1017.3
20260906064817 22 5 3.2 14.5 0.00 0.00 0.00 84 1017.6
20260906064313 23 36 11.3 12.9 0.00 0.00 0.00 84 1017.6
20260906063813 23 22 6.4 12.9 0.00 0.00 0.00 84 1017.8
20260906063308 23 34 3.2 4.8 0.00 0.00 0.00 85 1017.6
20260906062803 23 45 3.2 8.0 0.00 0.00 0.00 84 1017.3
20260906062305 23 68 4.8 9.7 0.00 0.00 0.00 84 1017.3
20260906061758 23 152 3.2 9.7 0.00 0.00 0.00 84 1017.2
20260906061254 23 62 9.7 9.7 0.00 0.00 0.00 83 1017.3
20260906060749 23 100 4.8 8.0 0.00 0.00 0.00 83 1017.1
20260906060247 23 50 1.6 6.4 0.00 0.00 0.00 82 1017.2
20260906055742 23 68 8.0 9.7 0.00 0.00 0.00 82 1017.0
20260906055237 23 29 3.2 11.3 0.00 0.00 0.00 82 1017.0
20260906054733 24 121 1.6 6.4 0.00 0.00 0.00 82 1017.0
20260906054228 24 63 3.2 6.4 0.00 0.00 0.00 82 1017.0
20260906053724 24 153 1.6 8.0 0.00 0.00 0.00 81 1016.8
20260906053220 24 103 4.8 6.4 0.00 0.00 0.00 81 1017.0
20260906052715 24 79 4.8 6.4 0.00 0.00 0.00 81 1016.7
20260906052211 25 29 1.6 11.3 0.00 0.00 0.00 80 1016.7
20260906051708 25 63 6.4 12.9 0.00 0.00 0.00 80 1016.9
20260906051207 25 63 9.7 12.9 0.00 0.00 0.00 80 1016.6
20260906050702 25 73 3.2 4.8 0.00 0.00 0.00 80 1016.6
20260906050157 25 187 0.0 3.2 0.00 0.00 0.00 80 1016.6
20260906045655 25 84 4.8 8.0 0.00 0.00 0.00 79 1016.6
20260906045151 25 94 4.8 9.7 0.00 0.00 0.00 80 1016.8
20260906044647 25 75 3.2 6.4 0.00 0.00 0.00 81 1016.6
20260906044142 25 212 0.0 8.0 0.00 0.00 0.00 81 1016.4
20260906043638 25 51 4.8 11.3 0.00 0.00 0.00 80 1016.4
20260906043134 25 38 3.2 6.4 0.00 0.00 0.00 80 1016.5
20260906042633 25 158 3.2 9.7 0.00 0.00 0.00 79 1016.2
20260906042127 26 315 3.2 6.4 0.00 0.00 0.00 78 1016.3
20260906041624 26 81 3.2 6.4 0.00 0.00 0.00 79 1016.3
20260906041124 26 111 6.4 12.9 0.00 0.00 0.00 78 1016.2
20260906040620 26 13 6.4 9.7 0.00 0.00 0.00 78 1016.3
20260906040115 26 25 4.8 9.7 0.00 0.00 0.00 78 1016.0
20260906035610 26 30 4.8 14.5 0.00 0.00 0.00 77 1016.0
20260906035106 26 18 1.6 6.4 0.00 0.00 0.00 77 1016.0
20260906034605 26 71 6.4 6.4 0.00 0.00 0.00 77 1015.9
20260906034101 26 1 0.0 9.7 0.00 0.00 0.00 77 1016.2
20260906033556 26 23 4.8 6.4 0.00 0.00 0.00 76 1016.2
20260906033051 27 36 6.4 16.1 0.00 0.00 0.00 76 1016.0
20260906032548 27 28 9.7 16.1 0.00 0.00 0.00 76 1016.1
20260906032047 27 32 6.4 12.9 0.00 0.00 0.00 76 1016.0
20260906031543 27 55 6.4 11.3 0.00 0.00 0.00 75 1015.8
20260906031039 27 66 9.7 17.7 0.00 0.00 0.00 75 1015.9
20260906030538 27 54 8.0 20.9 0.00 0.00 0.00 75 1016.0
20260906030038 27 19 6.4 16.1 0.00 0.00 0.00 75 1015.9
20260906025538 27 41 6.4 20.9 0.00 0.00 0.00 74 1016.0
20260906025036 28 53 20.9 24.1 0.00 0.00 0.00 74 1015.8
20260906024532 28 73 8.0 20.9 0.00 0.00 0.00 74 1015.5
20260906024031 28 42 9.7 9.7 0.00 0.00 0.00 75 1015.7
20260906023528 28 39 8.0 14.5 0.00 0.00 0.00 74 1015.4
20260906023022 28 71 4.8 14.5 0.00 0.00 0.00 73 1015.2
20260906022518 28 72 8.0 16.1 0.00 0.00 0.00 73 1015.2
20260906022013 29 356 6.4 9.7 0.00 0.00 0.00 73 1015.3
20260906021508 29 33 3.2 16.1 0.00 0.00 0.00 73 1015.2
20260906021002 29 53 3.2 6.4 0.00 0.00 0.00 74 1015.2
20260906020501 29 52 6.4 9.7 0.00 0.00 0.00 74 1015.1
20260906020001 29 47 3.2 4.8 0.00 0.00 0.00 74 1015.0
20260906015500 30 43 1.6 4.8 0.00 0.00 0.00 74 1014.9
20260906015000 30 22 9.7 12.9 0.00 0.00 0.00 74 1014.7
20260906014455 30 53 6.4 9.7 0.00 0.00 0.00 74 1014.7
20260906013946 30 37 8.0 8.0 0.00 0.00 0.00 74 1014.6
20260906013441 30 19 1.6 4.8 0.00 0.00 0.00 74 1014.6
20260906012937 30 6 0.0 4.8 0.00 0.00 0.00 75 1014.5
20260906012437 30 55 3.2 3.2 0.00 0.00 0.00 75 1014.6
20260906011936 30 95 3.2 3.2 0.00 0.00 0.00 74 1014.4
20260906011432 30 304 0.0 3.2 0.00 0.00 0.00 74 1014.7
20260906010927 30 150 0.0 3.2 0.00 0.00 0.00 73 1014.4
20260906010422 30 142 0.0 3.2 0.00 0.00 0.00 73 1014.3
20260906005918 30 39 3.2 4.8 0.00 0.00 0.00 72 1014.3
20260906005418 30 37 3.2 6.4 0.00 0.00 0.00 71 1014.3
20260906004916 30 51 0.0 6.4 0.00 0.00 0.00 71 1014.4
20260906004411 30 351 1.6 6.4 0.00 0.00 0.00 70 1014.3
20260906003906 31 50 3.2 4.8 0.00 0.00 0.00 69 1014.0
20260906003401 31 15 3.2 3.2 0.00 0.00 0.00 68 1014.0
20260906002857 31 4 4.8 4.8 0.00 0.00 0.00 68 1013.9
20260906002356 31 342 4.8 4.8 0.00 0.00 0.00 67 1014.2
20260906001852 31 342 0.0 4.8 0.00 0.00 0.00 66 1013.9
20260906001347 31 56 1.6 6.4 0.00 0.00 0.00 65 1014.1
20260906000842 32 9 3.2 6.4 0.00 0.00 0.00 65 1014.3
20260906000342 32 342 4.8 6.4 0.00 0.00 0.00 64 1014.0
20260905235843 32 347 3.2 3.2 0.00 0.00 0.00 64 1014.2
20260905235337 32 59 3.2 6.4 0.00 0.00 0.00 63 1014.0
20260905234832 32 24 6.4 8.0 0.00 0.00 0.00 62 1014.0
20260905234328 33 52 1.6 6.4 0.00 0.00 0.00 61 1014.0
20260905233823 33 349 9.7 11.3 0.00 0.00 0.00 60 1014.0
20260905233318 33 52 12.9 12.9 0.00 0.00 0.00 60 1014.2
20260905232816 33 302 4.8 9.7 0.00 0.00 0.00 60 1014.2
20260905232313 33 62 4.8 4.8 0.00 0.00 0.00 60 1014.1
20260905231808 33 19 0.0 6.4 0.00 0.00 0.00 60 1014.4
20260905231303 33 357 4.8 9.7 0.00 0.00 0.00 59 1014.2
20260905230800 33 331 1.6 8.0 0.00 0.00 0.00 59 1014.2
20260905230257 33 0 3.2 9.7 0.00 0.00 0.00 57 1014.1
20260905225757 34 355 12.9 19.3 0.00 0.00 0.00 55 1014.1
20260905225252 34 2 9.7 14.5 0.00 0.00 0.00 54 1013.9
20260905224752 34 350 8.0 14.5 0.00 0.00 0.00 55 1014.0
20260905224247 34 324 9.7 14.5 0.00 0.00 0.00 54 1013.9
20260905223743 34 0 12.9 14.5 0.00 0.00 0.00 54 1014.0
20260905223240 34 344 9.7 17.7 0.00 0.00 0.00 52 1013.9
20260905222735 35 38 1.6 16.1 0.00 0.00 0.00 53 1014.0
20260905222234 35 0 6.4 12.9 0.00 0.00 0.00 52 1013.9
20260905221730 35 3 6.4 19.3 0.00 0.00 0.00 51 1014.1
20260905221227 35 359 9.7 11.3 0.00 0.00 0.00 52 1013.9
20260905220723 35 311 3.2 6.4 0.00 0.00 0.00 52 1013.8
20260905220219 35 342 6.4 14.5 0.00 0.00 0.00 52 1014.0
20260905215718 35 35 4.8 11.3 0.00 0.00 0.00 51 1013.8
20260905215214 35 349 3.2 8.0 0.00 0.00 0.00 51 1013.8
20260905214709 35 315 9.7 14.5 0.00 0.00 0.00 50 1013.8
20260905214204 35 329 8.0 9.7 0.00 0.00 0.00 50 1013.9
20260905213700 36 349 3.2 9.7 0.00 0.00 0.00 50 1013.9
20260905213155 35 341 3.2 9.7 0.00 0.00 0.00 52 1014.0
20260905212650 35 356 8.0 16.1 0.00 0.00 0.00 51 1014.0
20260905212150 35 309 6.4 12.9 0.00 0.00 0.00 51 1014.0
20260905211644 36 335 4.8 11.3 0.00 0.00 0.00 49 1014.0
20260905211140 36 263 4.8 16.1 0.00 0.00 0.00 49 1013.8
20260905210637 36 6 4.8 12.9 0.00 0.00 0.00 50 1013.8
20260905210137 35 255 4.8 11.3 0.00 0.00 0.00 50 1014.1
20260905205635 36 7 6.4 12.9 0.00 0.00 0.00 49 1014.2
20260905205130 35 318 3.2 8.0 0.00 0.00 0.00 50 1014.0
20260905204629 35 318 11.3 14.5 0.00 0.00 0.00 49 1014.1
20260905204125 35 77 3.2 12.9 0.00 0.00 0.00 50 1014.1
20260905203625 35 19 8.0 14.5 0.00 0.00 0.00 50 1014.2
20260905203120 35 314 12.9 14.5 0.00 0.00 0.00 49 1014.0
20260905202616 35 311 9.7 12.9 0.00 0.00 0.00 50 1014.2
20260905202111 35 269 1.6 11.3 0.00 0.00 0.00 51 1014.4
20260905201607 35 320 4.8 14.5 0.00 0.00 0.00 50 1014.4
20260905201106 35 333 6.4 17.7 0.00 0.00 0.00 50 1014.4
20260905200602 35 30 9.7 11.3 0.00 0.00 0.00 49 1014.4
20260905200056 35 15 8.0 14.5 0.00 0.00 0.00 48 1014.1
20260905195555 36 276 9.7 17.7 0.00 0.00 0.00 47 1014.2
20260905195051 36 293 11.3 19.3 0.00 0.00 0.00 47 1014.3
20260905194551 36 1 9.7 9.7 0.00 0.00 0.00 46 1014.2
20260905194050 36 326 6.4 14.5 0.00 0.00 0.00 46 1014.4
20260905193545 36 352 8.0 14.5 0.00 0.00 0.00 45 1014.4
20260905193041 36 311 6.4 16.1 0.00 0.00 0.00 43 1014.5
20260905192536 36 251 14.5 20.9 0.00 0.00 0.00 44 1014.7
20260905192032 36 35 3.2 20.9 0.00 0.00 0.00 44 1014.6
20260905191530 36 11 9.7 14.5 0.00 0.00 0.00 46 1014.7
20260905191030 36 272 4.8 11.3 0.00 0.00 0.00 44 1014.6
20260905190527 36 17 3.2 16.1 0.00 0.00 0.00 45 1014.5
20260905190022 36 273 9.7 11.3 0.00 0.00 0.00 47 1014.7
20260905185521 35 17 4.8 16.1 0.00 0.00 0.00 47 1014.6
20260905185020 36 6 1.6 11.3 0.00 0.00 0.00 46 1014.8
20260905184515 35 254 3.2 14.5 0.00 0.00 0.00 48 1014.9
20260905184014 35 317 6.4 12.9 0.00 0.00 0.00 48 1014.9
20260905183514 35 4 4.8 14.5 0.00 0.00 0.00 47 1015.0
20260905183009 36 214 8.0 17.7 0.00 0.00 0.00 46 1015.1
20260905182508 35 332 3.2 11.3 0.00 0.00 0.00 47 1014.9
20260905182003 35 276 17.7 17.7 0.00 0.00 0.00 47 1014.8
20260905181458 35 320 3.2 8.0 0.00 0.00 0.00 49 1015.1
20260905180957 35 314 8.0 11.3 0.00 0.00 0.00 47 1015.2
20260905180452 35 271 9.7 16.1 0.00 0.00 0.00 48 1015.2
20260905175947 35 314 1.6 9.7 0.00 0.00 0.00 47 1015.2
20260905175447 35 331 4.8 8.0 0.00 0.00 0.00 48 1015.2
20260905174942 35 271 4.8 17.7 0.00 0.00 0.00 47 1015.4
20260905174437 35 8 4.8 9.7 0.00 0.00 0.00 49 1015.3
20260905173933 35 299 3.2 14.5 0.00 0.00 0.00 49 1015.4
20260905173430 35 311 11.3 12.9 0.00 0.00 0.00 49 1015.4
20260905172925 35 320 6.4 8.0 0.00 0.00 0.00 48 1015.4
20260905172422 35 335 3.2 8.0 0.00 0.00 0.00 49 1015.5
20260905171918 34 343 0.0 14.5 0.00 0.00 0.00 50 1015.5
20260905171415 34 348 1.6 6.4 0.00 0.00 0.00 50 1015.5
20260905170911 34 323 14.5 14.5 0.00 0.00 0.00 51 1015.6
20260905170407 34 65 4.8 8.0 0.00 0.00 0.00 50 1015.7
20260905165906 34 340 6.4 9.7 0.00 0.00 0.00 51 1015.5
20260905165401 34 346 3.2 8.0 0.00 0.00 0.00 51 1015.6
20260905164856 34 1 6.4 9.7 0.00 0.00 0.00 51 1015.7
20260905164351 34 55 1.6 9.7 0.00 0.00 0.00 49 1015.7
20260905163846 34 288 3.2 3.2 0.00 0.00 0.00 53 1015.6
20260905163343 33 65 3.2 4.8 0.00 0.00 0.00 54 1015.7
20260905162838 33 55 3.2 6.4 0.00 0.00 0.00 53 1015.7
20260905162338 33 324 0.0 8.0 0.00 0.00 0.00 53 1015.6
20260905161832 33 320 3.2 9.7 0.00 0.00 0.00 53 1015.6
20260905161332 33 16 0.0 6.4 0.00 0.00 0.00 54 1015.5
20260905160830 33 279 1.6 8.0 0.00 0.00 0.00 55 1015.8
20260905160325 33 322 0.0 8.0 0.00 0.00 0.00 55 1015.9
20260905155819 33 1 3.2 4.8 0.00 0.00 0.00 54 1015.9
20260905155319 33 46 1.6 6.4 0.00 0.00 0.00 54 1016.0
20260905154813 32 24 8.0 8.0 0.00 0.00 0.00 54 1015.9
20260905154308 32 241 3.2 9.7 0.00 0.00 0.00 54 1015.9
20260905153804 32 277 6.4 9.7 0.00 0.00 0.00 54 1016.0
20260905153300 33 272 4.8 11.3 0.00 0.00 0.00 51 1015.6
20260905152800 32 311 4.8 4.8 0.00 0.00 0.00 54 1015.9
20260905152259 32 331 6.4 8.0 0.00 0.00 0.00 54 1015.6
20260905151754 32 284 3.2 4.8 0.00 0.00 0.00 56 1015.5
20260905151250 32 249 1.6 4.8 0.00 0.00 0.00 56 1015.6
20260905150750 32 260 3.2 6.4 0.00 0.00 0.00 54 1015.6
20260905150249 32 265 3.2 6.4 0.00 0.00 0.00 54 1015.5
20260905145747 32 157 0.0 3.2 0.00 0.00 0.00 56 1015.4
20260905145242 31 283 3.2 3.2 0.00 0.00 0.00 57 1015.4
20260905144740 31 247 4.8 6.4 0.00 0.00 0.00 56 1015.6
20260905144236 31 241 3.2 6.4 0.00 0.00 0.00 59 1015.6
20260905143735 31 197 0.0 3.2 0.00 0.00 0.00 60 1015.4
20260905143235 31 352 0.0 1.6 0.00 0.00 0.00 63 1015.7
20260905142733 30 13 0.0 1.6 0.00 0.00 0.00 65 1015.6
20260905142228 30 55 0.0 1.6 0.00 0.00 0.00 65 1015.7
20260905141724 30 62 0.0 1.6 0.00 0.00 0.00 64 1015.5
20260905141220 30 242 0.0 3.2 0.00 0.00 0.00 63 1015.7
20260905140715 30 212 1.6 1.6 0.00 0.00 0.00 63 1015.6
20260905140209 30 62 0.0 1.6 0.00 0.00 0.00 64 1015.7
20260905135703 29 329 0.0 1.6 0.00 0.00 0.00 66 1015.5
20260905135200 29 262 3.2 3.2 0.00 0.00 0.00 65 1015.7
20260905134659 29 291 1.6 3.2 0.00 0.00 0.00 65 1015.6
20260905134158 30 285 3.2 3.2 0.00 0.00 0.00 65 1015.8
20260905133653 30 294 3.2 6.4 0.00 0.00 0.00 65 1015.6
20260905133148 29 126 0.0 0.0 0.00 0.00 0.00 68 1015.7
20260905132647 28 142 0.0 0.0 0.00 0.00 0.00 68 1015.6
20260905132142 28 309 0.0 0.0 0.00 0.00 0.00 69 1015.7